GEFSSE_500_meanwind_150.txt.gz
Wind_Speed
25 25 26 26 26 25 25 25 24 23 22 20 18 17 16 15 15 14 13 13 12 11 10 9 9 8 8 8 8 8 8 8 8 8 9 10 10 10 11 11 12 13 15
26 27 28 28 27 27 26 26 26 25 24 22 20 19 18 17 16 16 15 14 13 13 12 11 10 9 9 9 9 9 8 9 9 9 10 10 11 11 11 12 13 14 15
28 28 29 30 29 29 28 28 27 27 26 25 23 21 19 18 18 17 17 16 15 14 13 12 11 11 10 10 10 10 9 9 10 10 10 11 11 11 12 13 14 15 16
30 30 31 31 31 31 30 29 29 29 28 27 25 23 22 20 19 19 18 18 17 16 15 14 13 12 12 12 11 11 10 10 10 11 11 12 12 13 13 14 15 16 17
32 32 33 34 33 33 32 31 31 30 30 29 27 26 24 22 21 20 20 19 19 18 16 15 14 14 13 13 13 12 11 11 11 12 12 13 13 14 14 15 16 17 19
35 35 35 35 35 35 34 33 33 32 32 30 30 28 26 25 23 22 22 21 20 19 18 17 16 15 15 14 14 13 13 13 12 13 13 14 14 15 15 16 17 18 20
37 37 37 37 37 37 36 35 35 34 33 32 32 31 29 27 25 24 23 23 22 21 20 18 17 17 16 15 15 15 14 14 14 14 14 15 15 16 16 17 18 19 20
39 39 39 39 39 39 39 38 37 36 35 34 34 33 31 29 28 26 25 24 23 22 21 20 19 18 17 17 16 16 15 15 15 15 15 16 16 17 17 18 19 21 21
42 42 41 41 41 41 41 40 39 38 37 36 35 34 33 32 30 29 27 26 25 24 23 22 21 19 19 18 17 17 17 16 16 16 16 17 17 18 19 20 21 22 23
45 44 44 44 43 43 43 42 41 40 39 38 37 36 35 34 32 31 29 28 27 25 24 23 22 21 20 19 19 18 18 17 17 17 17 18 18 19 20 21 22 23 24
47 47 46 46 46 45 44 44 44 42 41 41 39 38 37 36 34 33 31 29 28 27 26 24 23 22 21 21 20 19 19 18 19 19 19 19 20 20 21 22 23 24 26
49 49 48 48 48 47 46 46 46 45 43 43 41 40 38 37 36 34 32 31 30 29 27 26 25 24 23 22 21 20 20 20 20 20 20 20 21 21 23 24 25 26 27
52 51 51 50 49 49 49 48 47 47 46 44 43 42 40 39 38 36 34 33 32 30 29 28 26 25 24 24 23 22 21 21 21 21 21 21 22 23 24 25 26 28 29
54 54 54 52 52 51 50 49 49 49 48 46 45 44 42 41 39 37 36 34 33 32 31 29 28 27 26 25 24 23 22 22 21 22 22 23 24 25 26 27 28 28 29
56 56 56 55 54 53 52 52 50 50 49 48 47 46 44 42 40 38 37 36 35 33 32 31 29 28 27 26 25 24 24 23 23 23 23 24 25 26 27 28 29 29 30
58 58 58 57 56 55 55 54 53 51 50 49 48 47 45 43 42 40 38 38 36 35 34 32 31 30 28 27 27 26 25 25 24 24 25 25 26 27 28 29 30 31 32
57 59 59 59 58 57 56 55 55 54 52 51 50 48 46 45 43 41 40 39 37 36 35 33 32 31 30 29 28 27 27 26 26 26 26 27 27 28 29 30 31 32 33
55 57 58 59 59 58 57 57 56 55 54 53 51 49 47 46 44 43 42 41 39 37 36 34 33 32 31 30 29 29 28 27 27 27 28 28 29 29 30 31 32 33 35
54 55 56 58 58 58 58 58 58 56 55 54 53 51 49 47 46 45 43 41 40 38 37 35 34 33 32 31 30 30 29 29 29 29 29 29 30 30 31 32 33 34 36
51 53 54 56 56 57 58 58 59 58 56 54 53 52 50 48 47 46 44 42 41 39 38 36 35 34 33 32 31 31 30 30 30 30 30 30 31 31 32 33 34 35 37
48 50 53 54 55 56 57 59 59 59 57 55 54 53 50 49 48 47 45 43 42 40 38 37 36 35 34 33 32 32 31 31 31 31 31 32 32 32 33 34 35 36 38
45 47 50 53 53 55 57 58 59 58 58 56 54 53 51 49 48 47 46 44 43 41 39 38 37 36 34 33 33 33 32 32 32 32 32 32 33 33 34 35 36 38 39
43 44 48 51 52 54 56 57 59 58 57 56 54 53 52 49 48 47 46 45 44 42 40 39 38 36 36 35 34 34 33 33 33 33 33 33 34 34 35 36 37 39 40
41 42 46 50 52 53 55 57 58 59 57 55 53 53 52 51 49 48 47 46 45 43 42 40 39 38 37 36 36 35 35 34 34 34 34 34 34 35 36 37 39 40 41
39 40 44 47 50 53 54 56 57 58 56 54 54 54 52 51 50 49 48 47 46 45 43 42 40 39 38 37 36 36 36 35 35 35 35 35 35 36 37 38 40 41 42
38 39 42 45 48 51 53 55 56 56 57 55 54 53 51 51 49 47 47 46 46 45 44 42 41 40 39 38 37 37 37 36 36 36 36 36 37 37 38 39 40 41 42

GEFSSE_500_meanwind_156.txt.gz
Wind_Speed
20 20 20 21 21 21 21 21 21 21 21 20 19 18 17 16 15 15 14 14 13 13 12 12 11 11 11 10 10 10 9 9 10 10 10 10 10 11 11 12 12 13 14
21 21 21 22 22 23 22 22 22 22 22 22 21 20 19 18 17 17 16 16 15 15 14 13 13 13 12 12 11 11 11 11 11 12 11 11 12 12 13 13 14 14 15
23 22 23 23 23 24 24 24 24 24 24 24 23 22 22 21 20 19 18 17 17 17 16 15 15 14 13 13 12 12 12 12 13 13 12 12 13 14 14 14 15 15 15
25 25 25 25 25 25 26 26 26 26 26 26 25 25 24 23 22 21 20 19 19 18 17 17 16 15 15 14 14 13 13 13 13 13 13 14 14 15 15 15 16 16 17
27 27 27 28 27 27 27 28 28 27 27 27 27 27 26 25 24 23 22 21 20 20 19 18 17 17 16 16 15 15 15 15 15 14 14 15 15 16 16 16 17 17 18
30 30 30 30 30 30 29 29 29 29 29 29 29 28 28 27 26 25 24 23 22 22 21 21 20 19 18 17 17 16 16 16 16 15 16 16 17 17 17 18 18 18 19
33 32 32 32 33 32 32 32 32 31 31 31 31 30 30 29 29 27 26 25 24 23 23 22 22 20 19 19 18 17 17 16 17 17 17 17 18 19 19 19 19 20 20
37 36 35 35 35 34 34 34 34 34 33 33 33 32 32 31 30 29 28 27 26 25 25 24 23 22 21 20 19 19 18 17 18 18 18 19 19 20 20 20 20 20 21
40 39 38 38 37 37 36 36 36 36 35 35 35 34 34 33 33 31 30 30 28 27 26 25 25 24 22 22 21 20 19 19 19 20 20 20 20 20 20 21 21 22 22
43 42 41 40 40 40 39 39 38 38 37 37 37 36 36 35 34 33 32 31 31 29 28 27 26 25 24 23 22 21 21 21 21 21 21 21 21 21 21 22 22 23 24
45 44 44 43 43 42 42 41 41 40 39 39 38 38 38 37 36 35 34 33 32 31 30 29 27 27 26 25 24 23 23 22 22 22 22 22 22 23 23 23 23 24 25
47 47 47 46 45 45 45 44 43 43 42 41 40 40 39 38 38 36 36 35 33 32 31 30 29 28 27 26 25 25 24 24 23 24 23 23 24 24 24 24 25 25 27
49 49 49 49 48 48 48 47 47 46 45 44 43 42 41 40 39 38 37 36 35 34 33 32 30 29 28 28 27 26 26 25 25 25 25 25 25 25 25 26 26 27 28
51 51 51 51 51 50 50 50 49 49 48 46 45 44 43 42 41 39 39 38 37 35 34 33 32 31 30 29 28 28 27 27 26 26 25 26 26 26 27 27 27 28 29
53 53 52 53 53 53 53 52 52 51 51 49 47 46 45 44 42 41 40 39 38 37 35 34 33 33 32 31 30 29 29 28 27 27 27 27 27 27 27 28 28 29 30
55 55 55 55 56 56 55 54 53 53 53 52 50 48 48 46 44 42 41 41 39 38 37 36 35 34 33 32 31 30 30 29 28 28 28 28 28 28 28 29 29 29 30
55 56 55 56 57 57 57 57 56 55 55 54 53 51 49 47 46 45 43 42 41 40 39 38 36 35 35 34 33 32 31 30 30 29 29 29 29 29 29 29 30 30 31
53 55 56 57 57 57 58 59 58 57 57 56 55 53 52 50 48 46 45 44 43 42 41 40 38 37 36 35 34 33 32 31 30 30 30 30 30 29 30 30 31 31 32
50 53 54 54 56 57 58 58 59 59 58 57 56 55 54 52 50 49 47 46 44 44 42 41 40 39 37 36 35 34 34 32 31 31 31 31 31 31 31 31 32 32 33
48 49 51 52 53 54 55 56 58 58 59 58 58 57 55 54 52 50 48 47 46 45 45 43 42 41 39 37 37 35 35 34 32 31 32 32 32 32 32 32 33 33 34
46 47 48 50 50 51 52 54 56 57 57 58 58 58 56 55 54 52 50 48 47 46 46 45 44 42 41 39 38 37 35 35 33 33 33 33 33 33 33 34 34 34 35
42 44 46 48 49 49 50 51 53 55 56 57 57 57 57 57 56 53 51 50 48 46 46 46 46 44 43 41 39 38 36 36 35 34 33 33 34 34 34 34 35 35 36
38 41 42 44 45 44 47 50 52 53 55 56 56 56 56 57 57 54 53 51 50 47 48 48 46 45 43 42 40 38 37 36 35 34 34 34 34 35 35 35 36 37 37
35 38 40 42 41 42 44 48 51 52 53 54 55 55 54 56 57 55 53 52 52 49 48 48 47 46 45 43 40 39 38 37 36 35 35 35 35 35 36 36 36 37 38
33 36 39 40 41 41 43 45 47 49 51 52 53 54 54 54 56 55 53 52 51 50 47 48 48 46 45 43 40 39 39 38 37 36 36 36 36 36 36 36 37 38 38
32 34 36 37 39 40 41 44 44 45 49 52 54 53 53 54 54 54 53 52 51 51 49 49 49 46 44 43 42 41 40 39 37 37 37 36 36 36 36 37 38 38 39

GEFSSE_500_meanwind_162.txt.gz
Wind_Speed
21 21 20 20 20 20 20 20 19 18 18 18 17 16 15 14 13 13 12 12 11 11 11 11 11 11 11 10 10 10 10 10 10 10 11 11 12 12 13 13 14 14 15
22 22 22 21 21 21 21 21 21 20 19 19 19 18 17 17 16 15 14 14 13 13 13 13 13 12 12 12 11 11 11 11 11 11 11 12 13 13 13 14 15 15 16
24 24 24 23 23 23 22 22 22 22 21 21 20 20 19 19 18 17 16 16 15 15 14 14 14 14 14 13 13 13 12 12 12 12 12 13 14 14 14 15 16 16 17
26 26 26 26 25 25 25 24 24 24 23 23 22 22 21 20 20 19 18 17 17 17 16 16 16 15 15 15 14 14 14 13 13 13 13 14 15 15 15 16 17 17 18
28 28 28 28 27 27 27 26 26 25 25 25 24 24 23 23 22 21 20 19 19 18 18 18 18 17 17 16 16 16 15 14 14 14 14 15 15 16 16 17 17 18 19
32 31 31 30 30 29 29 28 28 28 27 26 26 26 25 24 24 24 23 22 21 20 20 20 19 19 19 18 17 17 17 16 16 16 15 16 16 16 17 18 18 19 20
35 35 34 33 33 32 31 31 30 30 29 29 28 28 27 27 26 26 25 24 23 22 22 21 21 21 20 20 19 19 19 18 18 17 17 17 17 17 18 19 19 20 20
38 38 38 37 36 35 34 33 33 32 32 31 30 30 29 29 28 28 27 26 25 25 24 23 22 22 22 22 21 21 20 20 19 19 18 18 18 19 19 20 21 21 22
41 40 40 40 39 38 37 36 36 35 34 34 33 32 32 31 31 30 29 29 27 27 26 26 24 24 23 23 23 22 22 21 20 20 20 19 19 20 20 21 22 22 23
43 43 43 42 42 41 40 40 39 38 37 36 36 35 34 34 33 32 32 31 30 29 28 28 27 26 25 25 24 24 23 22 22 21 21 21 21 21 21 22 23 23 24
45 45 46 45 44 44 43 42 41 41 40 39 38 37 37 36 35 34 34 33 32 31 30 29 29 28 27 27 26 25 24 24 23 23 23 23 22 22 23 23 23 24 25
47 47 48 47 47 46 45 45 44 43 42 42 40 40 39 38 38 37 36 35 34 34 33 31 30 30 29 28 27 27 26 25 25 24 24 24 24 24 24 24 25 25 26
49 50 50 50 49 48 48 47 46 46 45 44 43 42 42 41 40 39 39 38 37 35 35 34 33 32 31 30 29 28 28 27 26 26 25 25 25 25 25 25 26 26 27
51 51 52 51 51 50 50 49 49 48 47 46 45 45 44 43 43 42 41 40 39 38 37 36 35 34 33 32 30 29 29 29 28 27 27 27 26 26 26 26 27 27 28
52 52 52 52 52 52 52 51 51 50 49 48 48 47 47 46 45 45 44 42 41 40 39 38 37 36 35 34 32 31 31 30 29 29 29 28 28 27 27 27 28 28 29
51 52 52 53 53 52 52 52 52 52 51 51 50 50 49 48 48 47 46 45 43 42 41 40 39 38 37 36 34 33 32 31 31 30 30 29 29 28 28 29 29 29 30
49 51 51 52 53 54 54 52 53 54 53 52 52 51 51 51 50 49 48 47 46 44 42 42 41 40 38 38 36 35 33 32 31 31 31 31 30 30 30 30 30 31 31
47 49 50 52 54 55 55 54 54 54 54 54 54 53 53 53 52 51 51 50 49 47 45 44 43 42 41 39 38 37 35 33 32 32 33 32 32 32 31 31 31 32 32
45 46 49 50 53 56 56 55 55 55 55 55 55 56 56 56 55 54 53 52 51 49 47 46 45 44 43 41 39 38 37 36 34 34 34 34 33 33 32 32 33 33 33
44 46 49 50 52 53 55 56 56 56 56 56 56 56 56 57 57 56 55 53 53 52 50 47 46 45 44 43 42 41 39 38 36 35 35 35 35 34 33 34 34 34 34
42 44 46 48 51 53 54 54 55 55 55 56 56 55 56 58 58 58 57 55 54 54 53 51 48 47 46 45 44 42 41 39 38 37 36 35 35 35 34 35 34 34 35
40 42 42 44 47 49 52 52 53 53 54 55 56 55 55 56 58 59 58 57 56 55 54 53 50 49 47 47 45 44 42 41 39 39 37 36 36 36 35 36 36 36 36
38 40 40 41 43 45 47 49 50 51 53 54 55 54 55 53 54 57 58 58 57 56 55 53 52 50 49 48 46 45 43 43 41 40 39 38 37 37 37 37 37 37 37
35 36 37 39 39 42 45 47 47 48 50 51 53 53 54 53 51 52 55 57 58 58 56 54 53 52 51 48 47 46 44 44 43 41 40 39 39 38 37 37 38 38 38
32 33 35 38 38 38 41 44 45 45 46 48 50 51 53 53 52 51 52 55 57 58 57 55 54 52 51 48 48 47 45 44 43 42 40 40 39 38 38 38 39 38 39
31 31 33 34 36 37 39 41 42 43 44 45 47 49 51 52 52 50 49 51 55 56 56 55 54 52 51 50 49 48 46 44 43 42 41 40 40 39 39 39 39 39 39

GEFSSE_500_meanwind_168.txt.gz
Wind_Speed
19 19 20 20 20 20 21 21 21 21 21 21 21 20 19 18 17 16 16 15 14 14 13 12 11 10 10 9 9 8 8 8 8 8 8 8 8 9 9 10 11 11 12
21 21 21 21 22 22 22 22 22 22 22 22 22 21 21 20 20 19 18 17 16 15 15 14 13 13 12 11 11 11 10 10 10 9 9 9 9 10 11 11 12 12 13
23 23 23 23 23 23 23 23 24 24 24 24 23 23 22 22 21 21 20 19 18 17 17 16 15 15 14 14 13 13 12 12 11 11 10 10 11 11 12 12 13 13 14
25 25 25 25 25 25 25 24 24 25 25 25 25 25 24 24 23 22 21 21 20 19 18 18 17 17 16 16 15 15 14 14 13 13 12 12 12 12 12 13 14 14 14
28 28 28 27 27 27 27 26 26 26 26 27 27 26 26 25 25 24 24 23 22 21 20 20 19 18 18 17 17 16 16 16 15 14 14 13 13 13 13 14 14 15 15
30 30 30 30 30 30 29 29 28 28 28 29 29 28 28 27 26 26 25 24 24 23 22 22 21 20 19 19 18 18 17 17 17 17 16 16 15 15 15 15 16 16 16
33 33 33 33 33 33 32 32 31 30 30 30 30 30 30 29 29 28 27 26 25 25 24 24 23 22 21 21 20 19 19 19 19 18 18 17 17 16 16 17 17 17 17
36 36 36 36 36 36 36 35 34 33 33 33 33 32 31 31 30 30 29 28 28 27 26 25 25 24 23 22 22 21 21 21 20 20 19 19 19 18 18 18 18 19 19
38 39 39 39 39 39 39 39 38 37 36 35 35 35 34 33 33 32 31 31 30 29 28 28 27 26 25 24 24 23 23 23 22 22 21 21 20 20 20 20 20 20 20
41 41 41 42 42 42 42 42 41 40 39 38 38 37 36 36 35 34 34 33 32 31 31 30 29 28 27 26 26 26 25 25 25 24 23 22 22 22 22 22 21 22 22
43 43 44 44 44 44 44 44 44 43 42 41 41 40 39 39 38 37 36 35 35 34 33 32 31 30 30 29 28 27 27 27 27 26 25 24 24 24 23 23 23 23 23
43 44 45 46 46 46 46 46 46 46 45 44 43 42 42 41 40 39 39 38 37 36 35 34 33 33 32 31 30 29 29 28 28 28 27 26 26 26 25 24 24 25 25
44 45 46 47 48 48 48 48 48 48 47 47 46 46 45 44 43 42 42 40 40 39 38 36 35 35 34 32 32 31 30 30 29 29 29 28 28 28 27 26 26 26 27
44 45 46 47 49 50 50 50 49 49 49 49 48 48 47 46 46 45 44 43 42 42 41 39 38 37 36 35 34 33 32 31 31 30 30 30 29 29 29 28 27 27 28
44 45 46 47 48 50 52 52 51 51 51 50 50 50 49 48 48 48 47 45 45 44 43 42 40 40 38 37 36 35 34 34 33 32 32 32 31 31 30 29 29 29 29
43 44 46 47 48 50 51 53 52 52 52 52 52 52 51 51 50 50 49 48 47 46 45 44 43 42 41 40 39 38 36 36 35 35 34 34 33 32 32 32 31 31 30
42 44 46 47 48 50 51 53 53 53 54 53 53 53 53 52 52 52 51 50 49 49 48 47 46 45 44 43 42 40 39 38 38 37 36 36 35 34 34 34 33 33 32
42 43 45 46 47 49 50 52 53 54 54 53 53 54 54 54 54 53 52 52 52 51 50 49 48 47 46 46 44 42 41 41 40 39 39 37 37 36 35 34 34 34 33
41 41 42 44 46 47 49 51 52 54 54 55 55 56 56 56 55 54 54 53 53 53 52 51 51 50 49 47 47 45 44 43 42 40 40 39 38 38 37 36 36 35 34
38 38 39 41 43 45 47 49 52 53 54 56 56 56 57 57 57 56 55 54 54 54 54 53 53 52 51 50 49 48 46 45 44 42 41 40 39 39 38 37 36 36 36
36 36 37 38 41 44 46 48 50 52 53 55 56 57 58 58 58 57 57 56 56 55 55 54 54 54 53 52 51 50 49 48 46 44 43 41 41 41 40 38 38 38 38
34 35 37 39 40 43 45 47 49 49 50 52 53 55 57 57 57 58 57 56 56 56 56 56 56 55 55 54 53 52 51 49 48 46 45 43 42 42 41 39 38 39 39
32 34 37 38 39 41 42 44 46 47 49 50 52 52 53 53 54 56 57 57 57 57 57 56 56 57 56 56 55 53 52 51 49 48 46 44 43 42 41 40 40 40 39
31 33 35 37 37 38 39 42 44 45 46 48 49 49 50 52 53 55 55 57 56 55 55 56 56 56 56 56 56 55 54 52 51 50 48 46 44 43 42 42 41 41 40
31 31 32 35 36 37 38 39 42 42 44 45 46 47 48 49 50 52 53 55 55 55 54 55 55 55 55 56 57 56 54 53 52 51 49 48 46 45 43 42 42 41 41
29 31 32 33 35 37 38 38 40 42 43 44 45 46 47 47 47 48 51 53 54 54 53 53 54 54 54 55 56 56 55 53 52 51 49 49 48 46 44 43 42 41 42